Regional Weather Roundup
Issued by NWS

Home | Current Version | Previous Version | Graphics & Text | Print | Product List | Glossary On
Versions: 1 2 3 4 5 6 7 8 9 10 11 12 13 14 15 16 17 18 19 20 21 22 23 24 25 26 27 28 29 30 31 32 33 34 35 36 37 38 39 40 41 42 43 44 45 46 47 48 49 50
000
ASUS43 KLSX 170359
RWRMO

WEATHER SUMMARY FOR MISSOURI
NATIONAL WEATHER SERVICE SPRINGFIELD MO
1100 PM CDT TUE SEP 16 2014

NOTE: "FAIR" INDICATES FEW OR NO CLOUDS BELOW 12,000 FEET WITH NO
       SIGNIFICANT WEATHER AND/OR OBSTRUCTIONS TO VISIBILITY.
       CURRENT SKY AND/OR WEATHER CONDITIONS ARE NOT AVAILABLE FOR
       CHILLICOTHE AND FARMINGTON.

MOZ001>031-035>038-043-044-053-054-170500-
...NORTHERN AND WESTERN MISSOURI...

CITY           SKY/WX    TMP DP  RH WIND       PRES   REMARKS
KANSAS CTY INT CLOUDY    64  56  75 SE7       30.04F
KANSAS C DTWN  CLOUDY    68  55  63 SE6       30.04S
LEE`S SUMMIT   CLOUDY    63  55  75 SE5       30.06S
ST JOSEPH      CLOUDY    63  53  70 SE7       30.04F
KIRKSVILLE     CLEAR     50  48  93 CALM      30.08F

$$
MOZ066>068-077>081-088>096-101>105-170500-
...SOUTHWEST MISSOURI...

CITY           SKY/WX    TMP DP  RH WIND       PRES   REMARKS
SPRINGFIELD    CLEAR     64  61  90 S8        30.06F
JOPLIN         CLEAR     67  65  93 SE8       30.04S

$$
MOZ032>034-039>042-045>050-055>058-069>072-170500-
...CENTRAL MISSOURI...

CITY           SKY/WX    TMP DP  RH WIND       PRES   REMARKS
COLUMBIA         N/A     56  54  93 MISG      30.08S
JEFFERSON CITY CLEAR     55  53  93 SE3       30.07S
ROLLA          FOG       55  53  93 S6        30.08S VSB 3/4
SEDALIA        CLEAR     58  54  86 E3        30.06S
OSAGE BEACH    MOCLDY    59  55  88 CALM      30.07S

$$
MOZ051-052-059>065-170500-
...EAST CENTRAL MISSOURI...

CITY           SKY/WX    TMP DP  RH WIND       PRES   REMARKS
ST LOUIS INTL  CLEAR     57  51  80 CALM      30.11S
SPIRIT OF STL  CLEAR     51  50  96 CALM      30.10R FOG
ST CHARLES     PTCLDY    51  50  96 CALM      30.10S

$$
MOZ072>076-082>087-097>100-106>115-170500-
...SOUTH CENTRAL AND SOUTHEAST MISSOURI...

CITY           SKY/WX    TMP DP  RH WIND       PRES   REMARKS
CAPE GIRARDEAU CLEAR     54  52  93 E3        30.11R
FARMINGTON     CLEAR     54  50  87 CALM      30.12S
POPLAR BLUFF   CLEAR     57  53  86 CALM      30.09R
WEST PLAINS    CLOUDY    64  58  80 CALM      30.10F

$$


USA.gov is the U.S. government's official web portal to all federal, state and local government web resources and services.